Location: ???????????
(54.5822°N, 39.1075°E)
Time: 06:24:55
(UTC+00:00)

Cosmos 44 Rocket - Pass Details

Date: 19 May 2025
Orbit: 651 x 728 km, 65.1° (Epoch: 15 June)

Event Time Altitude Azimuth Distance (km) Brightness Sun altitude
Rises 22:58:15 0° 312° (NW) 3,020 6.8 -12.5°
Reaches altitude 10° 23:00:37 10° 307° (NW) 2,114 6.0 -12.4°
Maximum altitude 23:05:12 47° 235° (SW) 911 3.5 -12.1°
Drops below altitude 10° 23:09:52 10° 162° (SSE) 2,148 5.4 -11.8°
Enters shadow 23:10:59 - 159° (SSE) 2,570 5.8 -11.8°
